TimeEST,TemperatureF,Dew PointF,Humidity,Sea Level PressureIn,VisibilityMPH,Wind Direction,Wind SpeedMPH,Gust SpeedMPH,PrecipitationIn,Events,Conditions,WindDirDegrees,DateUTC
12:10 AM,44.6,42.8,93,30.04,2.5,NE,6.9,-,0.09,Rain,Heavy Rain,50,2012-12-10 05:10:00
12:24 AM,44.6,42.8,93,30.05,3.0,NNE,5.8,-,0.12,Rain,Rain,20,2012-12-10 05:24:00
12:53 AM,45.0,42.1,90,30.01,5.0,North,6.9,-,0.17,Rain,Light Rain,10,2012-12-10 05:53:00
1:53 AM,44.1,42.1,93,29.99,4.0,NW,4.6,-,0.10,Rain,Rain,320,2012-12-10 06:53:00
2:53 AM,45.0,42.1,90,29.94,6.0,North,5.8,-,0.00,Rain,Light Rain,10,2012-12-10 07:53:00
3:09 AM,46.4,42.8,87,29.93,10.0,North,6.9,-,0.00,,Overcast,360,2012-12-10 08:09:00
3:23 AM,44.6,42.8,93,29.92,6.0,North,5.8,-,0.00,,Overcast,360,2012-12-10 08:23:00
3:53 AM,44.1,41.0,89,29.90,6.0,North,4.6,-,0.01,Rain,Light Rain,360,2012-12-10 08:53:00
4:29 AM,44.6,41.0,87,29.88,4.0,North,8.1,-,0.01,Rain,Rain,360,2012-12-10 09:29:00
4:53 AM,44.1,42.1,93,29.86,8.0,North,5.8,-,0.03,Rain,Light Rain,10,2012-12-10 09:53:00
5:53 AM,44.1,41.0,89,29.85,4.0,North,4.6,-,0.00,,Overcast,360,2012-12-10 10:53:00
6:20 AM,44.6,42.8,93,29.85,2.5,North,5.8,-,N/A,,Overcast,360,2012-12-10 11:20:00
6:53 AM,44.1,42.1,93,29.83,2.0,NNE,5.8,-,N/A,,Overcast,20,2012-12-10 11:53:00
7:13 AM,44.6,42.8,93,29.83,1.8,North,4.6,-,N/A,,Overcast,360,2012-12-10 12:13:00
7:33 AM,44.6,42.8,93,29.82,0.5,NNE,5.8,-,N/A,Fog,Fog,20,2012-12-10 12:33:00
7:53 AM,45.0,43.0,93,29.81,0.5,NNE,3.5,-,N/A,Fog,Fog,20,2012-12-10 12:53:00
8:07 AM,44.6,42.8,93,29.82,0.2,Calm,Calm,-,N/A,Fog,Fog,0,2012-12-10 13:07:00
8:27 AM,44.6,44.6,100,29.81,0.2,Calm,Calm,-,N/A,Fog,Fog,0,2012-12-10 13:27:00
8:31 AM,44.6,44.6,100,29.81,0.1,NE,3.5,-,N/A,Fog,Fog,40,2012-12-10 13:31:00
8:53 AM,46.0,44.1,93,29.81,0.1,Calm,Calm,-,N/A,Fog,Fog,0,2012-12-10 13:53:00
9:53 AM,46.9,45.0,93,29.78,0.1,Calm,Calm,-,N/A,Fog,Fog,0,2012-12-10 14:53:00
10:53 AM,48.9,46.9,93,29.74,0.1,Calm,Calm,-,N/A,Fog,Fog,0,2012-12-10 15:53:00
11:53 AM,53.1,51.1,93,29.70,0.1,Calm,Calm,-,0.00,Fog-Rain,Light Rain,0,2012-12-10 16:53:00
12:53 PM,52.0,50.0,93,29.67,0.2,Calm,Calm,-,0.00,Fog,Fog,0,2012-12-10 17:53:00
1:53 PM,54.0,52.0,93,29.64,0.2,Calm,Calm,-,N/A,Fog,Fog,0,2012-12-10 18:53:00
2:17 PM,55.4,51.8,88,29.63,0.2,SW,3.5,-,N/A,Fog,Fog,230,2012-12-10 19:17:00
2:53 PM,55.0,53.1,93,29.62,0.2,SSW,3.5,-,0.03,Fog-Rain,Light Rain,210,2012-12-10 19:53:00
3:28 PM,53.6,51.8,94,29.61,0.2,Calm,Calm,-,N/A,Fog,Fog,0,2012-12-10 20:28:00
3:53 PM,54.0,52.0,93,29.60,0.1,Calm,Calm,-,N/A,Fog,Fog,0,2012-12-10 20:53:00
4:01 PM,53.6,51.8,94,29.60,0.2,Calm,Calm,-,N/A,Fog,Fog,0,2012-12-10 21:01:00
4:18 PM,53.6,51.8,94,29.59,0.2,Calm,Calm,-,0.00,Fog-Rain,Light Rain,0,2012-12-10 21:18:00
4:28 PM,53.6,51.8,94,29.59,0.2,Calm,Calm,-,0.01,Fog-Rain,Light Rain,0,2012-12-10 21:28:00
4:53 PM,54.0,52.0,93,29.59,0.5,SW,3.5,-,0.01,Fog-Rain,Light Rain,220,2012-12-10 21:53:00
5:44 PM,53.6,53.6,100,29.56,0.2,Calm,Calm,-,0.00,Fog,Fog,0,2012-12-10 22:44:00
5:51 PM,53.6,53.6,100,29.56,0.2,Calm,Calm,-,0.00,Fog,Fog,0,2012-12-10 22:51:00
5:53 PM,54.0,53.1,97,29.57,0.2,Calm,Calm,-,0.00,Fog,Fog,0,2012-12-10 22:53:00
6:01 PM,55.4,53.6,94,29.55,0.2,South,3.5,-,N/A,Fog,Fog,170,2012-12-10 23:01:00
6:53 PM,54.0,53.1,97,29.56,0.2,SSW,3.5,-,N/A,Fog,Fog,200,2012-12-10 23:53:00
7:53 PM,53.1,52.0,96,29.55,0.1,Calm,Calm,-,N/A,Fog,Fog,0,2012-12-11 00:53:00
8:24 PM,53.6,51.8,94,29.55,0.1,SSW,3.5,-,N/A,Fog,Fog,200,2012-12-11 01:24:00
8:53 PM,52.0,50.0,93,29.56,0.1,SW,3.5,-,N/A,Fog,Fog,230,2012-12-11 01:53:00
9:25 PM,55.4,53.6,94,29.55,0.2,SW,3.5,-,N/A,Fog,Fog,230,2012-12-11 02:25:00
9:34 PM,55.4,53.6,94,29.54,0.5,Calm,Calm,-,N/A,Fog,Fog,0,2012-12-11 02:34:00
9:53 PM,55.0,53.1,93,29.55,0.5,WSW,4.6,-,N/A,Fog,Fog,240,2012-12-11 02:53:00
10:27 PM,55.4,53.6,94,29.55,1.0,SW,5.8,-,N/A,,Mist,230,2012-12-11 03:27:00
10:42 PM,55.4,53.6,94,29.55,0.8,SW,4.6,-,N/A,,Mist,220,2012-12-11 03:42:00
10:53 PM,55.0,53.1,93,29.56,0.8,WSW,3.5,-,N/A,,Mist,250,2012-12-11 03:53:00
11:35 PM,55.4,53.6,94,29.56,0.2,SW,6.9,-,N/A,Fog,Fog,230,2012-12-11 04:35:00
11:53 PM,55.0,53.1,93,29.56,0.2,WSW,4.6,-,N/A,Fog,Fog,250,2012-12-11 04:53:00